EHI
0 1 3 2 1 0 0 0 0 1 2 1 0 0 0 0 0 0 0 0 0 0 1 1 1 1 2 2 1 1 0 0 0 1 2 2 3 3 2 1 0 0 0
0 1 2 1 1 1 0 0 0 1 2 1 0 0 0 0 0 0 0 0 0 0 0 0 0 0 1 1 1 1 0 0 0 0 1 1 2 2 2 2 1 1 1
0 0 0 1 2 2 0 0 0 1 2 1 0 0 0 0 0 0 0 0 0 0 0 0 0 0 0 0 0 0 0 0 0 0 0 0 1 1 1 2 2 2 2
0 0 0 1 1 1 0 0 0 1 1 0 0 0 0 0 0 0 0 0 0 0 0 0 0 0 0 0 0 0 0 0 0 0 0 0 0 0 1 1 1 1 2
0 0 0 0 0 0 0 0 0 0 0 0 0 0 0 0 0 0 0 0 0 0 0 0 0 0 0 0 0 0 0 0 0 0 0 0 0 1 1 1 0 0 1
0 0 0 0 0 0 0 1 0 0 0 0 0 0 0 0 0 0 0 0 0 0 0 0 0 0 0 0 0 0 0 0 0 0 0 0 1 2 2 1 0 0 1
0 0 0 0 0 0 0 1 1 1 0 0 0 0 0 0 0 0 0 0 0 0 0 0 0 0 0 0 0 0 0 0 0 0 0 0 1 2 2 1 0 0 1
0 0 1 0 0 0 0 1 2 1 0 0 0 0 0 0 0 0 0 0 0 0 0 0 0 0 0 0 0 0 0 0 0 0 0 0 0 1 1 0 0 0 1
0 0 0 0 0 0 0 1 1 1 0 0 0 0 0 0 0 0 0 0 0 0 0 0 0 0 0 0 0 0 0 0 0 0 0 0 0 0 1 1 0 0 0
1 0 0 0 0 0 0 0 0 0 0 0 0 0 0 0 0 0 0 0 0 0 0 0 0 0 0 0 0 0 0 0 0 0 0 0 0 0 1 2 1 0 0
2 1 1 1 0 0 0 0 0 0 0 0 0 0 0 0 0 0 0 0 0 0 0 0 0 0 0 0 0 0 0 0 0 0 0 0 0 0 1 2 2 1 0
3 3 2 1 0 0 0 0 0 0 0 0 0 0 0 0 0 0 0 0 0 0 0 0 0 0 0 0 0 0 0 0 0 0 0 0 0 0 0 1 1 1 0
3 3 2 1 0 0 0 0 0 0 0 0 0 0 0 0 0 0 0 0 0 0 0 0 0 0 0 0 0 0 0 0 0 0 0 0 0 0 0 0 0 0 0
1 2 1 0 0 0 0 0 0 0 0 0 0 0 0 0 0 0 0 0 0 0 0 0 0 0 0 0 0 0 0 0 0 0 0 0 0 0 0 0 0 0 0
0 0 0 1 1 1 0 0 0 0 0 0 0 0 0 0 0 0 0 0 0 0 1 1 1 0 0 0 0 0 0 0 0 0 0 0 0 0 0 0 0 0 0
0 0 1 2 2 2 1 0 0 0 0 0 0 0 0 0 0 0 0 0 0 0 1 2 1 0 0 0 0 0 0 0 0 0 0 0 0 0 0 0 0 0 0
0 0 1 2 3 3 1 1 0 0 0 0 0 0 0 0 0 0 0 0 0 0 1 1 0 0 0 0 0 0 0 0 0 0 0 0 0 0 0 0 0 0 0
0 1 1 3 3 3 3 2 1 0 0 0 0 0 0 0 0 0 0 0 0 0 0 0 0 0 0 0 0 0 0 0 0 0 0 0 0 0 0 0 0 0 0
1 2 3 3 3 4 4 3 1 0 0 0 0 0 0 0 0 0 0 0 0 0 0 0 0 0 0 0 0 0 0 0 0 0 0 0 0 0 0 0 0 0 0
2 3 3 3 4 5 5 4 2 1 0 0 0 0 0 0 0 0 0 0 0 0 0 0 0 0 0 0 0 0 0 0 0 0 0 0 0 0 0 0 0 0 0
1 2 2 3 4 6 6 5 3 1 1 1 0 0 0 0 0 0 0 0 0 0 0 0 0 0 0 0 0 0 0 0 0 0 0 0 0 0 0 0 0 0 1
1 1 1 2 3 5 5 4 3 3 2 2 1 0 0 0 0 0 0 0 0 0 0 0 0 0 0 0 0 0 0 0 0 0 0 0 0 0 0 0 0 0 1
1 1 1 1 1 2 3 3 3 3 3 2 1 0 0 0 0 0 0 0 0 0 0 0 0 0 0 0 0 0 0 0 0 0 0 0 0 0 0 0 0 0 1
0 1 1 0 0 0 1 1 2 3 3 2 1 0 0 0 0 0 0 0 0 0 0 0 0 0 0 0 0 0 0 0 0 0 0 0 0 0 0 0 0 0 0
0 0 0 0 0 0 0 1 2 2 2 1 0 0 0 0 0 0 0 0 0 0 0 0 0 0 0 0 0 0 0 0 0 0 0 0 0 0 0 0 0 0 0
0 0 0 0 0 0 1 2 2 1 1 0 0 0 0 0 0 0 0 0 0 0 0 0 0 0 0 0 0 0 0 0 0 0 0 0 0 0 0 0 0 0 0
Wind_Speed
2 3 4 2 3 5 5 5 5 5 6 6 7 8 8 8 8 8 8 8 8 8 8 8 8 8 8 8 8 8 8 8 8 8 8 8 8 7 6 5 4 4 7
3 3 4 3 4 4 4 4 4 5 6 6 7 8 8 8 8 8 9 8 8 8 8 8 8 9 9 9 9 8 8 8 8 8 7 7 8 7 7 6 5 5 6
4 4 4 4 5 5 4 4 4 5 6 6 7 7 7 8 8 8 8 9 8 8 8 8 8 9 9 9 9 9 9 8 7 5 4 5 7 8 7 6 6 6 5
4 4 5 6 6 5 5 5 5 6 7 7 7 7 8 8 8 8 9 9 10 9 9 9 9 9 9 9 9 9 9 8 6 2 3 5 6 8 7 6 6 6 5
5 5 7 6 6 7 7 7 7 8 8 7 7 8 8 8 9 9 9 9 10 9 9 10 11 10 9 9 9 9 9 7 5 3 6 6 6 8 7 7 6 6 5
5 5 7 6 7 7 8 9 9 9 8 8 8 8 8 9 9 9 9 10 10 10 10 10 11 11 10 11 11 10 8 6 4 5 6 6 6 8 7 7 6 6 5
6 5 7 7 7 7 8 9 9 9 9 9 9 9 9 9 9 9 9 9 9 9 10 10 11 11 11 11 10 10 9 6 5 6 5 5 7 8 7 7 7 7 7
5 5 7 7 7 7 8 8 9 9 9 9 9 9 9 8 9 9 10 10 10 10 10 11 11 11 11 11 11 10 8 5 6 6 6 6 8 7 7 7 7 7 8
5 5 5 6 7 7 7 8 8 8 9 9 9 9 9 9 9 10 10 10 10 11 11 11 11 11 10 10 10 10 8 6 6 5 6 6 8 7 7 8 8 8 8
6 5 5 5 5 6 6 8 7 8 8 8 9 9 8 8 9 8 9 10 10 10 11 11 11 10 10 10 10 9 6 3 7 6 5 7 9 8 8 8 8 8 8
5 4 4 5 5 5 5 6 5 7 7 6 7 7 4 5 6 6 10 9 9 10 11 11 10 9 8 9 9 6 2 4 7 6 6 9 9 9 9 9 9 9 9
5 4 4 4 4 4 4 4 3 4 4 4 5 5 4 4 5 6 9 8 9 9 10 10 8 6 3 5 6 2 4 6 5 6 7 10 9 9 9 9 10 9 9
4 4 3 3 3 3 3 2 2 2 3 4 4 5 4 4 4 4 4 5 6 5 6 6 4 4 5 5 4 5 6 5 5 5 8 11 10 10 10 10 11 10 9
4 3 3 3 3 3 3 3 2 2 2 3 3 4 3 3 3 4 3 4 3 3 4 4 3 5 6 6 6 7 7 5 5 5 8 12 11 11 11 11 11 11 10
4 3 2 2 2 2 2 2 2 2 2 3 2 2 3 2 3 3 3 3 3 3 3 4 4 5 6 6 6 7 7 7 6 6 6 10 11 12 11 11 11 11 11
3 3 3 3 2 2 2 2 2 2 2 2 2 2 3 2 2 3 3 3 3 3 3 3 4 4 4 4 6 6 6 6 6 5 5 7 10 10 11 10 10 10 11
3 3 3 3 2 2 1 1 1 1 2 2 2 1 2 2 2 2 2 3 3 3 3 2 4 3 3 4 5 5 5 5 4 5 5 4 5 8 10 10 10 10 10
3 3 3 3 2 2 2 1 1 1 1 1 1 1 2 2 2 2 2 2 2 2 2 2 2 2 3 3 3 3 3 3 4 4 4 4 4 4 7 9 9 9 9
3 2 3 3 3 2 2 2 1 1 1 1 1 1 1 1 2 2 1 1 2 2 2 1 1 1 2 2 2 2 2 3 3 2 3 4 4 3 3 6 6 7 7
3 2 2 3 3 3 3 2 2 1 1 1 1 1 1 1 1 2 1 2 2 2 1 1 2 1 1 1 2 2 2 2 2 2 2 3 3 3 3 3 3 5 6
2 2 2 2 3 2 2 2 2 2 2 2 1 1 1 1 1 1 1 1 1 1 1 2 2 2 1 1 1 2 2 2 3 2 2 1 2 2 2 2 2 2 3
3 2 2 1 2 2 1 1 1 2 2 2 1 1 1 1 2 2 2 2 2 2 2 2 2 1 1 1 1 1 1 3 2 2 1 1 1 2 1 2 2 2 2
2 2 2 2 2 2 2 1 2 2 2 3 3 2 2 2 2 2 2 2 2 2 2 2 2 2 1 1 1 2 1 0 1 2 2 1 2 1 1 1 2 2 2
1 1 2 2 2 2 2 2 3 2 2 2 2 2 3 3 3 2 2 2 2 2 2 3 3 2 2 2 1 1 2 2 2 1 2 2 1 1 1 1 1 1 2
1 1 1 2 2 2 2 2 2 2 2 2 2 2 2 3 2 2 2 3 3 2 2 3 3 3 3 2 2 1 1 2 3 2 1 2 1 1 1 0 0 1 1
1 1 1 2 2 2 2 3 3 3 3 3 3 3 3 2 2 3 3 3 3 3 3 3 3 3 3 3 2 2 2 2 2 2 2 2 1 1 0 0 0 0 0
Wind_Direction
81 82 87 85 94 97 94 86 82 83 85 87 86 86 83 80 73 70 71 74 78 77 74 75 77 75 75 80 85 85 83 85 90 94 95 96 97 97 94 91 100 101 90
91 89 94 89 97 95 91 82 84 90 90 90 89 89 85 82 78 74 72 74 75 75 74 73 74 73 74 77 81 84 84 84 88 91 99 105 96 90 88 81 65 74 86
97 98 110 91 89 85 80 77 84 95 94 91 90 88 84 80 76 74 72 74 77 76 75 73 74 75 73 73 78 83 84 81 83 93 118 105 99 90 85 80 77 81 86
98 95 92 90 87 75 68 74 88 96 93 87 88 85 83 78 72 74 75 76 77 77 73 71 72 76 76 76 79 82 83 83 81 96 96 82 88 87 80 76 76 80 78
101 95 92 89 85 75 66 74 87 93 93 91 89 89 84 79 75 72 73 74 77 77 76 74 72 72 77 77 78 80 82 84 84 76 72 74 77 80 74 71 70 76 74
104 97 95 89 87 80 73 75 83 92 92 90 92 93 87 82 77 73 73 73 75 76 76 75 75 73 76 76 70 71 79 79 87 73 69 72 76 76 72 68 66 70 71
105 101 100 88 86 85 80 77 80 83 81 82 90 95 89 84 79 75 75 74 76 77 78 78 77 77 76 74 71 69 70 62 64 72 73 71 71 72 71 68 66 67 67
108 105 106 101 88 85 85 80 78 77 76 77 87 93 88 85 82 79 76 75 75 77 79 79 79 78 73 73 74 72 63 39 72 70 70 70 68 71 71 70 66 68 69
111 112 111 113 113 106 93 84 79 78 76 76 81 85 85 84 84 83 80 79 79 79 79 80 80 79 76 73 74 72 62 34 53 64 68 64 68 71 74 73 71 69 67
116 113 107 108 111 107 107 96 86 84 81 81 84 86 89 95 95 93 92 81 82 83 83 83 82 79 75 73 71 67 60 48 59 63 63 67 67 70 72 70 72 70 67
119 117 112 111 103 97 93 102 109 104 97 106 104 100 109 101 98 102 79 81 84 85 84 83 81 82 86 83 72 63 54 60 63 58 57 61 65 67 71 68 69 71 71
128 123 118 110 103 97 94 108 101 97 103 101 101 105 95 87 81 86 95 88 91 94 93 85 87 100 95 88 90 86 62 63 62 64 61 56 61 66 68 68 69 72 73
131 123 117 113 115 111 109 98 93 92 96 92 93 102 96 94 102 99 107 117 114 115 99 104 108 76 76 73 65 65 57 53 52 58 60 55 59 64 68 69 70 72 73
132 131 129 129 128 119 107 104 104 100 97 95 96 99 102 93 88 90 91 88 95 90 87 84 72 77 74 75 71 67 65 58 56 60 62 54 56 62 68 69 69 68 73
136 133 133 129 131 122 106 111 121 106 101 102 98 97 97 100 93 92 98 95 88 87 95 89 79 73 71 66 63 61 62 63 62 65 71 63 55 56 63 68 70 67 67
137 133 134 125 115 118 123 142 124 121 128 120 116 124 115 116 112 102 97 96 90 88 83 89 87 82 75 72 67 64 62 63 63 67 71 78 68 60 61 65 69 69 69
133 135 134 127 123 121 116 113 118 136 139 132 123 119 117 112 115 114 105 108 107 110 105 90 89 84 84 84 79 72 66 58 62 69 70 66 77 75 65 60 63 67 70
143 142 138 150 146 130 133 155 148 147 144 146 139 137 125 129 126 109 115 116 117 118 116 106 102 99 97 87 79 74 73 68 58 58 69 71 66 68 78 65 57 62 68
164 161 157 155 161 152 145 149 138 135 141 146 157 157 156 138 149 137 123 127 123 128 128 123 109 101 101 93 88 79 67 66 64 68 68 66 74 75 75 90 78 62 63
181 183 179 170 179 168 173 167 143 138 135 124 128 167 130 153 145 138 146 142 132 143 134 136 117 116 103 111 99 83 78 80 73 59 49 60 60 67 67 71 91 91 74
178 187 181 190 177 175 181 181 180 167 152 136 128 132 163 179 165 144 163 154 153 147 154 157 138 135 139 145 146 127 116 97 77 79 57 51 76 66 68 70 59 60 101
175 177 183 193 179 180 186 190 193 167 151 132 139 136 150 170 165 169 178 167 155 152 175 172 165 193 150 221 266 224 172 152 122 92 89 69 70 78 55 55 65 63 49
168 180 189 188 177 179 183 181 175 161 169 163 162 156 152 159 167 174 177 178 172 176 174 191 199 217 220 207 297 303 287 6 132 138 99 97 74 62 59 54 52 62 68
181 187 204 190 174 168 181 192 198 194 186 170 156 154 164 169 175 179 182 189 184 190 187 199 205 220 229 227 202 300 315 329 272 162 158 128 95 53 32 50 56 67 70
164 175 204 183 167 163 179 173 198 195 186 157 154 169 185 175 182 182 198 198 195 195 200 207 218 225 229 244 247 240 249 249 263 258 206 173 157 113 46 10 36 79 85
123 145 176 181 171 171 176 182 191 194 191 179 177 184 198 181 184 186 198 201 202 201 203 204 214 218 234 234 244 245 250 256 250 250 251 217 199 162 138 55 262 133 121